Regional Weather Roundup
Issued by NWS

Home | Current Version | Previous Version | Text Only | Print | Product List | Glossary On
Versions: 1 2 3 4 5 6 7 8 9 10 11 12 13 14 15 16 17 18 19 20 21 22 23 24 25 26 27 28 29 30 31 32 33 34 35 36 37 38 39 40 41 42 43 44 45 46 47 48 49 50
259
ASUS43 KMPX 171110
RWRMN
WEATHER ROUNDUP FOR MINNESOTA
NATIONAL WEATHER SERVICE TWIN CITIES/CHANHASSEN MN
600 AM CDT SAT AUG 17 2019


NOTE: "FAIR" INDICATES FEW OR NO CLOUDS BELOW 12,000 FEET WITH NO
SIGNIFICANT WEATHER AND/OR OBSTRUCTIONS TO VISIBILITY. N/A MEANS
CURRENT SKY AND/OR WEATHER CONDITIONS ARE NOT AVAILABLE.

MNZ060>063-068>070-171200-
   Twin Cities Metro

CITY           SKY/WX    TMP DP  RH WIND       PRES   REMARKS
TWIN CITIES    FAIR      65  59  81 S7        29.87R
ST PAUL        FAIR      63  60  90 S8        29.87R
CRYSTAL        FAIR      63  59  87 S8        29.83R
BLAINE         FAIR      61  61 100 S6        29.83R
LAKEVILLE      FAIR      63  63 100 CALM      29.89R
EDEN PRAIRIE   MOCLDY    63  59  87 S7        29.86R
SOUTH ST PAUL  FAIR      63  60  91 S6        29.88R
LAKE ELMO        N/A     59  59 100 S9        29.89R
$$
MNZ001>005-007-008-013>017-022>024-027-028-171200-
   Northwest Minnesota

CITY           SKY/WX    TMP DP  RH WIND       PRES   REMARKS
BEMIDJI        FAIR      59  56  90 CALM      29.73F
HALLOCK        MOCLDY    63  61  94 S7        29.63S
ROSEAU         FAIR      66  61  82 SW12      29.66R
WARROAD          N/A     64  61  88 SW7       29.67R
THIEF RVR FALL PTCLDY    60  57  89 S8        29.69F
CROOKSTON      PTCLDY    63  59  88 S8        29.68S
FOSSTON        CLEAR     57  55  94 S5        29.71F
DETROIT LAKES  FAIR      61  59  94 SE5       29.73F
MOORHEAD       CLEAR     61  57  88 S5        29.70S
PARK RAPIDS    FAIR      58  55  90 E3        29.73F
$$
MNZ006-009>011-018-025>026-171200-
   North Central Minnesota

CITY           SKY/WX    TMP DP  RH WIND       PRES   REMARKS
BAUDETTE       FAIR      62  58  86 S6        29.68F
FLAG ISLAND      N/A     66  59  77 SW9       29.63S
INTL FALLS     FAIR      59  56  89 CALM      29.71F
WASKISH          N/A     61  57  88 S3        29.71F
BIG FORK         N/A     54  54 100 CALM      29.80F VSB 3/4
LONGVILLE      FAIR      54  54 100 CALM      29.72F FOG
GRAND RAPIDS   FAIR      55  55 100 CALM      29.77F
ORR            FAIR      57  54  88 SE3       29.74F
COOK           FAIR      55  54  94 CALM      29.77S
WALKER         FAIR      58  55  88 CALM      29.73F
$$
MNZ012-019>021-037-171200-
   Northeast Minnesota

CITY           SKY/WX    TMP DP  RH WIND       PRES   REMARKS
DULUTH         FAIR      62  55  77 N3        29.77F
ELY            FAIR      54  54 100 CALM      29.79S
HIBBING        FOG       47  47 100 CALM      29.77F VSB 1/4
EVELETH        FOG       48  48  99 CALM      29.79F VSB 1/4
DULUTH HARBOR    N/A     59  52  77 S3        29.75F
TWO HARBORS    FAIR      61  55  82 NW5       29.76F
SILVER BAY     FAIR      52  48  87 CALM      29.78S FOG
GRAND MARAIS     N/A     55  53  93 CALM      29.78S
G MARAIS ARPRT FAIR      52  48  87 CALM      29.81F
$$
MNZ029>031-032-039>041-046>048-054>057-064-171200-
   West Central Minnesota

CITY           SKY/WX    TMP DP  RH WIND       PRES   REMARKS
FERGUS FALLS   FAIR      61  57  88 SE6       29.73S
WHEATON        CLEAR     59  55  88 SE8       29.74R
MORRIS         CLEAR     57  57 100 SE8       29.73R
ALEXANDRIA     FAIR      66  59  78 S8        29.79R
ELBOW LAKE     FAIR      60  59  99 E7        29.75R
WADENA         FAIR      52  52 100 CALM      29.74S
GLENWOOD       FAIR      59  57  94 S8        29.80R
APPLETON       CLEAR     61  57  88 CALM      29.78R
BENSON         CLEAR     61  57  88 S8        29.80R
ORTONVILLE     CLEAR     61  59  94 SE6       29.77R
MADISON        CLEAR     63  61  94 S6        29.80R
WILLMAR        FAIR      63  57  82 S3        29.86R
$$
MNZ033>034-036-042>043-049>051-058-059-171200-
   Central Minnesota

CITY           SKY/WX    TMP DP  RH WIND       PRES   REMARKS
ST CLOUD       FAIR      57  56  96 CALM      29.81R
SAUK CENTRE    FAIR      56  56  98 S7        29.81R
PAYNESVILLE    FAIR      62  61  96 S7        29.83R
PINE RIVER     FAIR      48  48 100 CALM      29.78F FOG
BRAINERD       FAIR      55  53  93 S3        29.78R FOG
STAPLES        FAIR      52  52 100 CALM      29.76R FOG
LONG PRAIRIE   FAIR      55  54  94 CALM      29.79R
LITTLE FALLS   FAIR      54  54 100 CALM      29.80R
CAMP RIPLEY    FAIR      55  55  99 S5        29.79R
LITCHFIELD     FAIR      63  63 100 CALM      29.85R
BUFFALO        FAIR      62  58  88 MISG      29.87R
MAPLE LAKE       N/A     62  61  97 CALM      29.85R
HUTCHINSON     MOCLDY    60  59  96 S5        29.88R
$$
MNZ037-044-045-052-053-171200-
   East Central Minnesota

CITY           SKY/WX    TMP DP  RH WIND       PRES   REMARKS
PRINCETON      FAIR      57  57 100 CALM      29.81R
MORA           FAIR      54  54 100 CALM      29.81R FOG
CAMBRIDGE      FAIR      59  50  72 SE5       29.82R
RUSH CITY      FAIR      56  54  95 S3        29.82R FOG
MOOSE LAKE     FAIR      52  50  93 CALM      29.75F FOG
HINCKLEY       FOG       52  52 100 CALM      29.79R VSB 1/4
CLOQUET        FAIR      55  54  94 CALM      29.76F
MCGREGOR         N/A     54  52  94 CALM      29.76F VSB 1/2
$$
MNZ071>073-080-081-089-090-097-098-171200-
   Southwest Minnesota

CITY           SKY/WX    TMP DP  RH WIND       PRES   REMARKS
MONTEVIDEO     CLEAR     63  57  82 SW8       29.82R
GRANITE FALLS  CLEAR     62  60  93 SE8       29.86R
CANBY          CLEAR     67  61  80 SW9       29.82R
MARSHALL       CLEAR     65  59  81 S15G25    29.84R
REDWOOD FALLS  CLEAR     62  58  86 S9        29.85R
OLIVIA         CLEAR     61  57  88 S9        29.85R
PIPESTONE      CLEAR     63  59  88 SW8       29.86F
WINDOM         CLEAR     63  57  82 S3        29.88R
WORTHINGTON    CLEAR     60  57  89 S7        29.89R
JACKSON        CLEAR     59  54  82 S7        29.90R
TRACY          CLEAR     64  59  82 S10       29.85R
SLAYTON        CLEAR     58  50  74 S8        29.88R
$$
MNZ065>067-074>077-082>085-091>093-171200-
   South Central Minnesota

CITY           SKY/WX    TMP DP  RH WIND       PRES   REMARKS
MANKATO        FAIR      60  58  92 S7        29.89R
NEW ULM        CLEAR     59  55  88 S9        29.87R
FAIRMONT       CLEAR     58  56  93 S6        29.91R
GLENCOE        MOCLDY    63  62  97 S6        29.87R
OWATONNA       FAIR      57  55  94 CALM      29.89R
WASECA         FAIR      57  54  88 S5        29.92R
ALBERT LEA     FAIR      59  57  94 S5        29.92R
$$
MNZ078>079-086>088-094>096-171200-
   Southeast Minnesota

CITY           SKY/WX    TMP DP  RH WIND       PRES   REMARKS
ROCHESTER      FAIR      56  54  93 S7        29.92R
RED WING       FAIR      59  59 100 CALM      29.88R
STANTON        FAIR      58  56  91 CALM      29.88R
DODGE CENTER   FAIR      57  54  88 CALM      29.92R
WINONA         FAIR      61  59  94 CALM      29.90R
AUSTIN         FAIR      59  52  77 S6        29.94R
PRESTON        FAIR      57  54  91 S7        29.94R
$$
ABBREVIATIONS USED IN REMARKS
   TC - TEMPERATURES IN CELSIUS
  WCI - WIND CHILL INDEX
   HX - HEAT INDEX
  VSB - VISIBILITY
$$




USA.gov is the U.S. government's official web portal to all federal, state and local government web resources and services.